Time,TemperatureF,DewpointF,PressureIn,WindDirection,WindDirectionDegrees,WindSpeedMPH,WindSpeedGustMPH,Humidity,HourlyPrecipIn,Conditions,Clouds,dailyrainin,SoftwareType,DateUTC
2013-05-03 00:02:00,38.0,13.0,-100.00,ESE,105,11.0,12.0,36,-99.99,,,0.00,,2013-05-03 06:02:00,
2013-05-03 00:12:00,40.0,14.0,-100.00,East,85,14.0,14.0,35,-99.99,,,0.00,,2013-05-03 06:12:00,
2013-05-03 00:21:00,40.0,14.0,-100.00,East,85,14.0,14.0,35,-99.99,,,0.00,,2013-05-03 06:21:00,
2013-05-03 00:32:00,39.0,14.0,-100.00,East,100,16.0,19.0,35,-99.99,,,0.00,,2013-05-03 06:32:00,
2013-05-03 00:42:00,39.0,14.0,-100.00,East,100,16.0,19.0,35,-99.99,,,0.00,,2013-05-03 06:42:00,
2013-05-03 00:51:00,37.0,13.0,-100.00,ESE,105,16.0,17.0,37,-99.99,,,0.00,,2013-05-03 06:51:00,
2013-05-03 01:01:00,37.0,13.0,-100.00,ESE,105,16.0,17.0,37,-99.99,,,0.00,,2013-05-03 07:01:00,
2013-05-03 01:11:00,37.0,15.0,-100.00,East,100,17.0,21.0,41,-99.99,,,0.00,,2013-05-03 07:11:00,
2013-05-03 01:21:00,37.0,15.0,-100.00,East,100,17.0,21.0,41,-99.99,,,0.00,,2013-05-03 07:21:00,
2013-05-03 01:31:00,36.0,16.0,-100.00,East,100,20.0,22.0,42,-99.99,,,0.00,,2013-05-03 07:31:00,
2013-05-03 01:42:00,36.0,16.0,-100.00,East,100,20.0,22.0,42,-99.99,,,0.00,,2013-05-03 07:42:00,
2013-05-03 01:52:00,36.0,16.0,-100.00,East,95,17.0,20.0,44,-99.99,,,0.00,,2013-05-03 07:52:00,
2013-05-03 02:01:00,36.0,16.0,-100.00,East,95,17.0,20.0,44,-99.99,,,0.00,,2013-05-03 08:01:00,
2013-05-03 02:11:00,35.0,17.0,-100.00,ESE,105,15.0,19.0,46,-99.99,,,0.00,,2013-05-03 08:11:00,
2013-05-03 02:21:00,35.0,17.0,-100.00,ESE,105,15.0,19.0,46,-99.99,,,0.00,,2013-05-03 08:21:00,
2013-05-03 02:32:00,35.0,17.0,-100.00,ESE,110,17.0,21.0,48,-99.99,,,0.00,,2013-05-03 08:32:00,
2013-05-03 02:42:00,35.0,17.0,-100.00,ESE,110,17.0,21.0,48,-99.99,,,0.00,,2013-05-03 08:42:00,
2013-05-03 02:52:00,36.0,18.0,-100.00,ESE,115,19.0,22.0,48,-99.99,,,0.00,,2013-05-03 08:52:00,
2013-05-03 03:01:00,36.0,18.0,-100.00,ESE,115,19.0,22.0,48,-99.99,,,0.00,,2013-05-03 09:01:00,
2013-05-03 03:12:00,35.0,17.0,-100.00,ESE,110,17.0,19.0,48,-99.99,,,0.00,,2013-05-03 09:12:00,
2013-05-03 03:21:00,35.0,17.0,-100.00,ESE,110,17.0,19.0,48,-99.99,,,0.00,,2013-05-03 09:21:00,
2013-05-03 03:32:00,35.0,17.0,-100.00,ESE,110,19.0,21.0,48,-99.99,,,0.00,,2013-05-03 09:32:00,
2013-05-03 03:42:00,35.0,17.0,-100.00,ESE,110,19.0,21.0,48,-99.99,,,0.00,,2013-05-03 09:42:00,
2013-05-03 03:52:00,35.0,17.0,-100.00,ESE,110,19.0,21.0,48,-99.99,,,0.00,,2013-05-03 09:52:00,
2013-05-03 04:03:00,35.0,17.0,-100.00,ESE,110,19.0,21.0,48,-99.99,,,0.00,,2013-05-03 10:03:00,
2013-05-03 04:12:00,34.0,17.0,-100.00,ESE,105,16.0,18.0,50,-99.99,,,0.00,,2013-05-03 10:12:00,
2013-05-03 04:22:00,34.0,17.0,-100.00,ESE,105,16.0,18.0,50,-99.99,,,0.00,,2013-05-03 10:22:00,
2013-05-03 04:32:00,33.0,17.0,-100.00,ESE,105,19.0,21.0,51,-99.99,,,0.00,,2013-05-03 10:32:00,
2013-05-03 04:42:00,33.0,17.0,-100.00,ESE,105,19.0,21.0,51,-99.99,,,0.00,,2013-05-03 10:42:00,
2013-05-03 04:52:00,33.0,17.0,-100.00,ESE,105,17.0,19.0,52,-99.99,,,0.00,,2013-05-03 10:52:00,
2013-05-03 05:02:00,33.0,17.0,-100.00,ESE,105,17.0,19.0,52,-99.99,,,0.00,,2013-05-03 11:02:00,
2013-05-03 05:11:00,32.0,18.0,-100.00,ESE,110,19.0,22.0,54,-99.99,,,0.00,,2013-05-03 11:11:00,
2013-05-03 05:22:00,32.0,18.0,-100.00,ESE,110,19.0,22.0,54,-99.99,,,0.00,,2013-05-03 11:22:00,
2013-05-03 05:32:00,32.0,18.0,-100.00,ESE,110,19.0,20.0,55,-99.99,,,0.00,,2013-05-03 11:32:00,
2013-05-03 05:42:00,32.0,18.0,-100.00,ESE,110,19.0,20.0,55,-99.99,,,0.00,,2013-05-03 11:42:00,
2013-05-03 05:51:00,32.0,18.0,-100.00,East,100,18.0,21.0,56,-99.99,,,0.00,,2013-05-03 11:51:00,
2013-05-03 06:01:00,32.0,18.0,-100.00,East,100,18.0,21.0,56,-99.99,,,0.00,,2013-05-03 12:01:00,
2013-05-03 06:11:00,31.0,18.0,-100.00,East,95,13.0,14.0,58,-99.99,,,0.00,,2013-05-03 12:11:00,
2013-05-03 06:21:00,31.0,18.0,-100.00,East,95,13.0,14.0,58,-99.99,,,0.00,,2013-05-03 12:21:00,
2013-05-03 06:32:00,31.0,18.0,-100.00,East,95,13.0,14.0,58,-99.99,,,0.00,,2013-05-03 12:32:00,
2013-05-03 06:42:00,31.0,18.0,-100.00,East,95,13.0,14.0,58,-99.99,,,0.00,,2013-05-03 12:42:00,
2013-05-03 06:51:00,31.0,19.0,-100.00,ESE,105,14.0,17.0,60,-99.99,,,0.00,,2013-05-03 12:51:00,
2013-05-03 07:01:00,31.0,19.0,-100.00,ESE,105,14.0,17.0,60,-99.99,,,0.00,,2013-05-03 13:01:00,
2013-05-03 07:11:00,34.0,20.0,-100.00,ESE,105,16.0,18.0,58,-99.99,,,0.00,,2013-05-03 13:11:00,
2013-05-03 07:22:00,34.0,20.0,-100.00,ESE,105,16.0,18.0,58,-99.99,,,0.00,,2013-05-03 13:22:00,
2013-05-03 07:32:00,35.0,21.0,-100.00,East,95,14.0,16.0,56,-99.99,,,0.00,,2013-05-03 13:32:00,
2013-05-03 07:42:00,35.0,21.0,-100.00,East,95,14.0,16.0,56,-99.99,,,0.00,,2013-05-03 13:42:00,
2013-05-03 07:52:00,37.0,21.0,-100.00,East,95,12.0,14.0,53,-99.99,,,0.00,,2013-05-03 13:52:00,
2013-05-03 08:02:00,37.0,21.0,-100.00,East,95,12.0,14.0,53,-99.99,,,0.00,,2013-05-03 14:02:00,
2013-05-03 08:11:00,41.0,22.0,-100.00,East,100,12.0,14.0,47,-99.99,,,0.00,,2013-05-03 14:11:00,
2013-05-03 08:22:00,41.0,22.0,-100.00,East,100,12.0,14.0,47,-99.99,,,0.00,,2013-05-03 14:22:00,
2013-05-03 08:32:00,43.0,24.0,-100.00,East,100,14.0,16.0,46,-99.99,,,0.00,,2013-05-03 14:32:00,
2013-05-03 08:42:00,43.0,24.0,-100.00,East,100,14.0,16.0,46,-99.99,,,0.00,,2013-05-03 14:42:00,
2013-05-03 08:52:00,45.0,24.0,-100.00,ESE,110,9.0,11.0,43,-99.99,,,0.00,,2013-05-03 14:52:00,
2013-05-03 09:01:00,45.0,24.0,-100.00,ESE,110,9.0,11.0,43,-99.99,,,0.00,,2013-05-03 15:01:00,
2013-05-03 09:11:00,47.0,24.0,-100.00,East,95,11.0,12.0,40,-99.99,,,0.00,,2013-05-03 15:11:00,
2013-05-03 09:22:00,47.0,24.0,-100.00,East,95,11.0,12.0,40,-99.99,,,0.00,,2013-05-03 15:22:00,
2013-05-03 09:32:00,49.0,25.0,-100.00,East,95,11.0,13.0,39,-99.99,,,0.00,,2013-05-03 15:32:00,
2013-05-03 09:43:00,49.0,25.0,-100.00,East,95,11.0,13.0,39,-99.99,,,0.00,,2013-05-03 15:43:00,
2013-05-03 09:53:00,50.0,25.0,-100.00,East,90,12.0,14.0,37,-99.99,,,0.00,,2013-05-03 15:53:00,
2013-05-03 10:03:00,50.0,25.0,-100.00,East,90,12.0,14.0,37,-99.99,,,0.00,,2013-05-03 16:03:00,
2013-05-03 10:13:00,54.0,26.0,-100.00,East,90,10.0,12.0,34,-99.99,,,0.00,,2013-05-03 16:13:00,
2013-05-03 10:23:00,54.0,26.0,-100.00,East,90,10.0,12.0,34,-99.99,,,0.00,,2013-05-03 16:23:00,
2013-05-03 10:32:00,54.0,25.0,-100.00,East,90,12.0,12.0,32,-99.99,,,-99.99,,2013-05-03 16:32:00,
2013-05-03 10:42:00,54.0,25.0,-100.00,East,90,12.0,12.0,32,-99.99,,,-99.99,,2013-05-03 16:42:00,
2013-05-03 10:52:00,56.0,25.0,-100.00,East,90,14.0,17.0,30,-99.99,,,-99.99,,2013-05-03 16:52:00,
2013-05-03 11:02:00,56.0,25.0,-100.00,East,90,14.0,17.0,30,-99.99,,,-99.99,,2013-05-03 17:02:00,
2013-05-03 11:12:00,56.0,22.0,-100.00,ESE,105,14.0,16.0,26,-99.99,,,-99.99,,2013-05-03 17:12:00,
2013-05-03 11:23:00,56.0,22.0,-100.00,ESE,105,14.0,16.0,26,-99.99,,,-99.99,,2013-05-03 17:23:00,
2013-05-03 11:32:00,58.0,22.0,-100.00,East,85,14.0,17.0,25,-99.99,,,0.00,,2013-05-03 17:32:00,
2013-05-03 11:42:00,58.0,22.0,-100.00,East,85,14.0,17.0,25,-99.99,,,0.00,,2013-05-03 17:42:00,
2013-05-03 11:52:00,58.0,22.0,-100.00,East,80,16.0,19.0,24,-99.99,,,0.00,,2013-05-03 17:52:00,
2013-05-03 12:01:00,58.0,22.0,-100.00,East,80,16.0,19.0,24,-99.99,,,0.00,,2013-05-03 18:01:00,
2013-05-03 12:12:00,59.0,21.0,-100.00,SE,135,12.0,14.0,23,-99.99,,,0.00,,2013-05-03 18:12:00,
2013-05-03 12:21:00,59.0,21.0,-100.00,SE,135,12.0,14.0,23,-99.99,,,0.00,,2013-05-03 18:21:00,
2013-05-03 12:32:00,59.0,21.0,-100.00,ESE,110,15.0,18.0,23,-99.99,,,0.00,,2013-05-03 18:32:00,
2013-05-03 12:42:00,59.0,21.0,-100.00,ESE,110,15.0,18.0,23,-99.99,,,0.00,,2013-05-03 18:42:00,
2013-05-03 12:51:00,59.0,20.0,-100.00,ESE,115,13.0,16.0,22,-99.99,,,0.00,,2013-05-03 18:51:00,
2013-05-03 13:01:00,59.0,20.0,-100.00,ESE,115,13.0,16.0,22,-99.99,,,0.00,,2013-05-03 19:01:00,
2013-05-03 13:11:00,-999.0,-99.9,-100.00,North,0,10.0,12.0,100,-99.99,,,0.00,,2013-05-03 19:11:00,
2013-05-03 13:22:00,-999.0,-99.9,-100.00,North,0,10.0,12.0,100,-99.99,,,0.00,,2013-05-03 19:22:00,
2013-05-03 13:32:00,-999.0,-99.9,-100.00,NE,40,12.0,19.0,23,-99.99,,,0.00,,2013-05-03 19:32:00,
2013-05-03 13:42:00,-999.0,-99.9,-100.00,NE,40,12.0,19.0,23,-99.99,,,0.00,,2013-05-03 19:42:00,
2013-05-03 13:52:00,-999.0,-99.9,-100.00,ENE,75,15.0,17.0,99,-99.99,,,0.00,,2013-05-03 19:52:00,
2013-05-03 14:02:00,-999.0,-99.9,-100.00,ENE,75,15.0,17.0,99,-99.99,,,0.00,,2013-05-03 20:02:00,
2013-05-03 14:53:00,-999.0,-99.9,-100.00,ENE,60,12.0,19.0,99,-99.99,,,0.00,,2013-05-03 20:53:00,
2013-05-03 15:02:00,-999.0,-99.9,-100.00,ENE,60,12.0,19.0,99,-99.99,,,0.00,,2013-05-03 21:02:00,
2013-05-03 15:33:00,-999.0,-99.9,-100.00,NE,50,13.0,17.0,100,-99.99,,,0.00,,2013-05-03 21:33:00,
2013-05-03 15:43:00,-999.0,-99.9,-100.00,NE,50,13.0,17.0,100,-99.99,,,0.00,,2013-05-03 21:43:00,
2013-05-03 16:13:00,-999.0,-99.9,-100.00,NE,40,10.0,13.0,90,-99.99,,,0.00,,2013-05-03 22:13:00,
2013-05-03 16:22:00,-999.0,-99.9,-100.00,NE,40,10.0,13.0,90,-99.99,,,0.00,,2013-05-03 22:22:00,
2013-05-03 16:32:00,-999.0,-99.9,-100.00,NE,40,10.0,13.0,90,-99.99,,,0.00,,2013-05-03 22:32:00,
2013-05-03 16:42:00,-999.0,-99.9,-100.00,NE,40,10.0,13.0,90,-99.99,,,0.00,,2013-05-03 22:42:00,
2013-05-03 18:11:00,-999.0,-99.9,-100.00,North,355,12.0,14.0,99,-99.99,,,0.00,,2013-05-04 00:11:00,
2013-05-03 18:23:00,-999.0,-99.9,-100.00,North,355,12.0,14.0,99,-99.99,,,0.00,,2013-05-04 00:23:00,
2013-05-03 18:32:00,-999.0,-99.9,-100.00,North,355,12.0,14.0,99,-99.99,,,0.00,,2013-05-04 00:32:00,
2013-05-03 18:42:00,-999.0,-99.9,-100.00,North,355,12.0,14.0,99,-99.99,,,0.00,,2013-05-04 00:42:00,